Change the Weather History Date:

Monday, November 26, 2012

  Actual Average (KISN) Record (KISN)
Temperature  
Mean Temperature 12 °F 21 °F  
Max Temperature 26 °F 32 °F 58 °F (1963)
Min Temperature -2 °F 11 °F -19 °F (1985)
Degree Days  
Heating Degree Days 53 44  
Month to date heating degree days 956  
Since 1 July heating degree days 1983  
Cooling Degree Days 0 0  
Month to date cooling degree days 0  
Year to date cooling degree days 456  
Moisture  
Dew Point 13 °F    
Average Humidity 87    
Maximum Humidity 100    
Minimum Humidity 73    
Precipitation  
Precipitation 0.00 in 0.02 in 0.40 in (1896)
Month to date precipitation 0.58  
Year to date precipitation 13.68  
Sea Level Pressure  
Sea Level Pressure 30.18 in    
Wind  
Wind Speed 11 mph (SW)    
Max Wind Speed 21 mph    
Max Gust Speed 29 mph    
Visibility 10 miles    
Events Snow    
T = Trace of Precipitation, MM = Missing Value Source: NWS Daily Summary

Daily Weather History Graph

Daily Weather History Graph

Search for Another Location

Airport or City:

Trip Planner

Search our weather history database for the weather conditions in past years. The results will help you decide how hot, cold, wet, or windy it might be!

Date:

Astronomy

Nov. 26, 2012 Rise Set
Actual Time 8:19 AM CST 5:01 PM CST
Civil Twilight 7:43 AM CST 5:37 PM CST
Nautical Twilight 7:04 AM CST 6:16 PM CST
Astronomical Twilight 6:26 AM CST 6:54 PM CST
Moon 3:59 PM CST (11/26) 6:26 AM CST (11/26)
Length of Visible Light 9h 53m
Length of Day
8h 41m
Waxing Gibbous, 97% of the Moon is Illuminated
Nov 26
Waxing Gibbous
Nov 28
Full
Dec 6
Last Quarter
Dec 13
New
Dec 19
First Quarter

Hourly Weather History & Observations

Time (CST) Temp. Windchill Dew Point Humidity Pressure Visibility Wind Dir Wind Speed Gust Speed Precip Events Conditions
12:15 AM -2.2 °F -12.5 °F -7.6 °F 78% 30.30 in 10.0 mi SW 4.6 mph - N/A   Clear
12:35 AM -2.2 °F -12.5 °F -7.6 °F 78% 30.29 in 10.0 mi SSW 4.6 mph - N/A   Clear
12:55 AM -2.2 °F -12.5 °F -7.6 °F 78% 30.30 in 10.0 mi SSW 4.6 mph - N/A   Clear
1:15 AM -2.2 °F -15.6 °F -5.8 °F 85% 30.29 in 10.0 mi South 6.9 mph - N/A   Mostly Cloudy
1:35 AM -0.4 °F -12.0 °F -4.0 °F 85% 30.29 in 10.0 mi SSW 5.8 mph - N/A   Mostly Cloudy
1:55 AM -0.4 °F -13.4 °F -4.0 °F 85% 30.29 in 10.0 mi SSW 6.9 mph - N/A   Overcast
2:15 AM 1.4 °F -12.5 °F -2.2 °F 85% 30.29 in 10.0 mi SSW 8.1 mph - N/A   Overcast
2:35 AM 1.4 °F -15.3 °F -2.2 °F 85% 30.29 in 10.0 mi SSW 11.5 mph - N/A   Overcast
2:55 AM 1.4 °F -13.5 °F -2.2 °F 85% 30.29 in 10.0 mi SSW 9.2 mph - N/A   Overcast
3:15 AM 1.4 °F -15.3 °F -2.2 °F 85% 30.29 in - SSW 11.5 mph - N/A   Overcast
3:35 AM 3.2 °F -13.1 °F -0.4 °F 85% 30.28 in - SSW 11.5 mph - N/A   Overcast
3:55 AM 3.2 °F -13.9 °F -0.4 °F 85% 30.27 in - SSW 12.7 mph - N/A   Overcast
4:15 AM 3.2 °F -15.3 °F -0.4 °F 85% 30.26 in - SSW 15.0 mph - N/A   Overcast
4:35 AM 5.0 °F -13.0 °F -0.4 °F 78% 30.24 in - SSW 15.0 mph 21.9 mph N/A   Mostly Cloudy
4:55 AM 5.0 °F -13.6 °F -0.4 °F 78% 30.24 in - SSW 16.1 mph - N/A   Mostly Cloudy
5:15 AM 5.0 °F -14.2 °F -0.4 °F 78% 30.23 in - SSW 17.3 mph 24.2 mph N/A   Overcast
5:35 AM 6.8 °F -11.3 °F 1.4 °F 79% 30.22 in - SSW 16.1 mph 23.0 mph N/A   Overcast
5:55 AM 8.6 °F -10.5 °F 1.4 °F 73% 30.22 in - SSW 19.6 mph 24.2 mph N/A   Overcast
6:15 AM 8.6 °F -10.0 °F 3.2 °F 79% 30.22 in - SSW 18.4 mph 23.0 mph N/A   Overcast
6:35 AM 8.6 °F -10.0 °F 5.0 °F 85% 30.21 in - SW 18.4 mph - N/A   Overcast
6:55 AM 10.4 °F -4.1 °F 6.8 °F 85% 30.21 in - SSW 11.5 mph 20.7 mph N/A   Overcast
7:15 AM 10.4 °F -5.4 °F 6.8 °F 85% 30.20 in 10.0 mi SSW 13.8 mph - N/A   Overcast
7:35 AM 12.2 °F -2.5 °F 8.6 °F 85% 30.20 in 10.0 mi SSW 12.7 mph 18.4 mph N/A   Overcast
7:55 AM 14.0 °F -2.5 °F 8.6 °F 79% 30.20 in 10.0 mi SSW 17.3 mph 23.0 mph N/A   Overcast
8:15 AM 14.0 °F -1.4 °F 8.6 °F 79% 30.20 in 10.0 mi SSW 15.0 mph - N/A   Overcast
8:35 AM 14.0 °F -2.0 °F 10.4 °F 86% 30.19 in 10.0 mi SSW 16.1 mph 23.0 mph N/A   Overcast
8:55 AM 15.8 °F -0.2 °F 12.2 °F 86% 30.18 in 10.0 mi SSW 17.3 mph - N/A   Overcast
9:15 AM 17.6 °F 1.3 °F 14.0 °F 86% 30.18 in 10.0 mi SW 19.6 mph 27.6 mph N/A   Mostly Cloudy
9:35 AM 17.6 °F 3.7 °F 14.0 °F 86% 30.19 in 10.0 mi SW 13.8 mph - N/A   Mostly Cloudy
9:55 AM 19.4 °F 5.5 °F 15.8 °F 86% 30.20 in 10.0 mi SSW 15.0 mph 28.8 mph N/A   Mostly Cloudy
10:15 AM 19.4 °F 5.5 °F 15.8 °F 86% 30.20 in 10.0 mi SSW 15.0 mph - N/A   Mostly Cloudy
10:35 AM 21.2 °F 7.8 °F 17.6 °F 86% 30.19 in 9.0 mi SSW 15.0 mph - N/A Snow Light Snow
10:55 AM 23.0 °F 10.1 °F 17.6 °F 80% 30.20 in 10.0 mi SW 15.0 mph - N/A   Mostly Cloudy
11:15 AM 23.0 °F 9.2 °F 17.6 °F 80% 30.20 in 10.0 mi SW 17.3 mph - N/A   Mostly Cloudy
11:35 AM 24.8 °F 11.9 °F 19.4 °F 80% 30.19 in 10.0 mi SW 16.1 mph 23.0 mph N/A   Mostly Cloudy
11:55 AM 23.0 °F 9.6 °F 19.4 °F 86% 30.18 in 10.0 mi SW 16.1 mph - N/A   Mostly Cloudy
12:15 PM 24.8 °F 11.5 °F 19.4 °F 80% 30.18 in 10.0 mi SW 17.3 mph - N/A   Mostly Cloudy
12:35 PM 24.8 °F 10.7 °F 19.4 °F 80% 30.17 in 10.0 mi SW 19.6 mph 24.2 mph N/A   Scattered Clouds
12:55 PM 24.8 °F 10.3 °F 19.4 °F 80% 30.16 in 10.0 mi SW 20.7 mph 26.5 mph N/A   Mostly Cloudy
1:15 PM 24.8 °F 11.1 °F 21.2 °F 86% 30.16 in 10.0 mi SW 18.4 mph - N/A   Partly Cloudy
1:35 PM 24.8 °F 11.5 °F 21.2 °F 86% 30.16 in 10.0 mi SW 17.3 mph 24.2 mph N/A   Mostly Cloudy
1:55 PM 26.6 °F 13.8 °F 21.2 °F 80% 30.16 in 10.0 mi SW 17.3 mph 20.7 mph N/A   Partly Cloudy
2:15 PM 26.6 °F 14.3 °F 23.0 °F 86% 30.14 in 10.0 mi SW 16.1 mph 23.0 mph N/A   Clear
2:35 PM 26.6 °F 13.8 °F 21.2 °F 80% 30.14 in 10.0 mi SW 17.3 mph 20.7 mph N/A   Clear
2:55 PM 24.8 °F 10.3 °F 21.2 °F 86% 30.13 in 10.0 mi WSW 20.7 mph 28.8 mph N/A   Clear
3:15 PM 26.6 °F 13.8 °F 23.0 °F 86% 30.13 in 10.0 mi WSW 17.3 mph - N/A   Clear
3:35 PM 26.6 °F 14.3 °F 23.0 °F 86% 30.13 in 10.0 mi WSW 16.1 mph 20.7 mph N/A   Clear
3:55 PM 26.6 °F 16.8 °F 23.0 °F 86% 30.13 in 10.0 mi WSW 10.4 mph - N/A   Clear
4:15 PM 24.8 °F 13.4 °F 23.0 °F 93% 30.13 in 10.0 mi SW 12.7 mph - N/A   Clear
4:35 PM 24.8 °F 14.0 °F 23.0 °F 93% 30.13 in 10.0 mi SW 11.5 mph - N/A   Clear
4:55 PM 24.8 °F 13.4 °F 23.0 °F 93% 30.12 in 10.0 mi SW 12.7 mph - N/A   Clear
5:15 PM 24.8 °F 13.4 °F 23.0 °F 93% 30.12 in 10.0 mi SW 12.7 mph - N/A   Clear
5:35 PM 24.8 °F 13.4 °F 23.0 °F 93% 30.12 in 10.0 mi WSW 12.7 mph - N/A   Clear
5:55 PM 24.8 °F 14.6 °F 23.0 °F 93% 30.12 in 10.0 mi SW 10.4 mph - N/A   Clear
6:15 PM 24.8 °F 13.4 °F 23.0 °F 93% 30.12 in 10.0 mi WSW 12.7 mph - N/A   Clear
6:35 PM 24.8 °F 13.4 °F 23.0 °F 93% 30.11 in 10.0 mi SW 12.7 mph - N/A   Clear
6:55 PM 23.0 °F 11.7 °F 23.0 °F 100% 30.11 in 10.0 mi WSW 11.5 mph - N/A   Clear
7:15 PM 23.0 °F 13.9 °F 23.0 °F 100% 30.11 in 10.0 mi SSW 8.1 mph - N/A   Clear
7:35 PM 23.0 °F 12.4 °F 23.0 °F 100% 30.11 in 10.0 mi SSW 10.4 mph - N/A   Clear
7:55 PM 23.0 °F 12.4 °F 23.0 °F 100% 30.11 in 10.0 mi SW 10.4 mph - N/A   Clear
8:15 PM 23.0 °F 13.1 °F 21.2 °F 93% 30.11 in 10.0 mi SW 9.2 mph - N/A   Clear
8:35 PM 21.2 °F 11.7 °F 19.4 °F 93% 30.11 in 10.0 mi WSW 8.1 mph - N/A   Clear
8:55 PM 19.4 °F 11.5 °F 19.4 °F 100% 30.11 in 10.0 mi WSW 5.8 mph - N/A   Scattered Clouds
9:15 PM 19.4 °F 10.4 °F 17.6 °F 93% 30.10 in 10.0 mi SW 6.9 mph - N/A   Scattered Clouds
9:35 PM 17.6 °F 7.3 °F 17.6 °F 100% 30.10 in 10.0 mi WSW 8.1 mph - N/A   Clear
9:55 PM 17.6 °F 8.2 °F 15.8 °F 93% 30.10 in 10.0 mi WSW 6.9 mph - N/A   Partly Cloudy
10:15 PM 15.8 °F 5.1 °F 15.8 °F 100% 30.10 in 10.0 mi West 8.1 mph - N/A   Clear
10:35 PM 17.6 °F 6.4 °F 15.8 °F 93% 30.10 in 10.0 mi West 9.2 mph - N/A   Clear
10:55 PM 15.8 °F 6.1 °F 15.8 °F 100% 30.10 in 10.0 mi West 6.9 mph - N/A   Mostly Cloudy
11:15 PM 17.6 °F 6.4 °F 15.8 °F 93% 30.09 in 10.0 mi West 9.2 mph - N/A   Mostly Cloudy
11:35 PM 17.6 °F 7.3 °F 15.8 °F 93% 30.09 in 10.0 mi WSW 8.1 mph - N/A   Overcast
11:55 PM 17.6 °F 8.2 °F 15.8 °F 93% 30.09 in 10.0 mi SW 6.9 mph - N/A   Overcast